RUK45VK EGPH-EGSS

Flight info

Callsign RUK45VK
Flight time N/A
Altitude 33000
Route GOSAM P600 FENIK L612 NAVSO DCT AKOMU DCT VAMEB UL612 LISTO
Aircraft B738/M-SDE2E3FGHIRWXY/LB1

Departure

Time 2026-04-22 18:25
Airport Edinburgh Airport (EGPH)

Arrival

Time N/A
Airport London Stansted Airport (EGSS)
Time Latitude Longitude Altitude Speed Heading
2026-04-22 18:02 55.94798 -3.35683 112 ft 0 kts 208°
2026-04-22 18:16 55.94810 -3.35671 111 ft 4 kts 208°
2026-04-22 18:16 55.94832 -3.35649 112 ft 3 kts 208°
2026-04-22 18:16 55.94850 -3.35623 114 ft 4 kts 255°
2026-04-22 18:16 55.94847 -3.35581 115 ft 4 kts 298°
2026-04-22 18:17 55.94842 -3.35565 114 ft 1 kts 298°
2026-04-22 18:19 55.94848 -3.35582 115 ft 5 kts 299°
2026-04-22 18:20 55.94874 -3.35669 113 ft 11 kts 298°
2026-04-22 18:20 55.94917 -3.35806 115 ft 13 kts 299°
2026-04-22 18:20 55.95007 -3.35843 114 ft 13 kts 25°
2026-04-22 18:20 55.95053 -3.35863 112 ft 9 kts 304°
2026-04-22 18:21 55.95097 -3.36017 115 ft 17 kts 290°
2026-04-22 18:21 55.95135 -3.36228 114 ft 15 kts 282°
2026-04-22 18:21 55.95085 -3.36428 114 ft 20 kts 239°
2026-04-22 18:21 55.95006 -3.36662 115 ft 24 kts 239°
2026-04-22 18:22 55.94910 -3.36944 113 ft 30 kts 239°
2026-04-22 18:22 55.94820 -3.37210 115 ft 22 kts 239°
2026-04-22 18:22 55.94733 -3.37467 114 ft 26 kts 239°
2026-04-22 18:22 55.94651 -3.37709 115 ft 21 kts 238°
2026-04-22 18:23 55.94578 -3.37925 115 ft 20 kts 239°
2026-04-22 18:23 55.94507 -3.38134 113 ft 19 kts 239°
2026-04-22 18:23 55.94438 -3.38336 113 ft 19 kts 239°
2026-04-22 18:24 55.94308 -3.38721 114 ft 17 kts 239°
2026-04-22 18:24 55.94318 -3.38900 111 ft 17 kts 323°
2026-04-22 18:24 55.94484 -3.38767 112 ft 24 kts 59°
2026-04-22 18:25 55.94745 -3.37999 114 ft 117 kts 58°
2026-04-22 18:25 55.95264 -3.36422 504 ft 166 kts 60°
2026-04-22 18:25 55.95882 -3.34529 1564 ft 180 kts 62°
2026-04-22 18:26 55.97754 -3.31148 3177 ft 220 kts 44°
2026-04-22 18:26 55.98999 -3.29237 3509 ft 249 kts 43°
2026-04-22 18:26 56.00582 -3.27792 4216 ft 268 kts 10°
2026-04-22 18:26 56.02425 -3.28274 5159 ft 278 kts 335°
2026-04-22 18:27 56.03876 -3.30497 5799 ft 282 kts 302°
2026-04-22 18:27 56.04423 -3.33783 6358 ft 279 kts 265°
2026-04-22 18:27 56.03874 -3.37031 6945 ft 274 kts 234°
2026-04-22 18:27 56.02893 -3.39990 7521 ft 279 kts 239°
2026-04-22 18:28 56.02127 -3.43207 8068 ft 283 kts 246°
2026-04-22 18:28 56.01501 -3.46553 8624 ft 284 kts 249°
2026-04-22 18:28 56.00935 -3.49946 9187 ft 285 kts 251°
2026-04-22 18:28 56.00417 -3.53364 9764 ft 286 kts 252°
2026-04-22 18:29 55.99917 -3.56802 10350 ft 287 kts 252°
2026-04-22 18:29 55.99420 -3.60262 10885 ft 288 kts 252°
2026-04-22 18:29 55.98919 -3.63762 11444 ft 295 kts 251°
2026-04-22 18:29 55.98398 -3.67378 12010 ft 306 kts 253°
2026-04-22 18:30 55.97859 -3.71120 12597 ft 317 kts 253°
2026-04-22 18:30 55.96726 -3.78986 13777 ft 336 kts 253°
2026-04-22 18:30 55.96135 -3.83085 14376 ft 345 kts 252°
2026-04-22 18:31 55.95526 -3.87292 14912 ft 354 kts 253°
2026-04-22 18:31 55.94902 -3.91583 15460 ft 361 kts 253°
2026-04-22 18:31 55.94270 -3.95915 16022 ft 368 kts 253°
2026-04-22 18:31 55.93355 -4.00180 16532 ft 369 kts 237°
2026-04-22 18:32 55.91742 -4.03618 17554 ft 353 kts 216°
2026-04-22 18:32 55.89702 -4.05802 18852 ft 339 kts 201°
2026-04-22 18:32 55.87417 -4.06891 19491 ft 342 kts 187°
2026-04-22 18:32 55.85020 -4.06789 19987 ft 351 kts 172°
2026-04-22 18:33 55.82595 -4.05917 20455 ft 360 kts 170°
2026-04-22 18:33 55.80127 -4.04891 20859 ft 368 kts 169°
2026-04-22 18:33 55.77617 -4.03809 21392 ft 373 kts 169°
2026-04-22 18:33 55.75083 -4.02718 21973 ft 377 kts 169°
2026-04-22 18:34 55.72504 -4.01627 22385 ft 384 kts 169°
2026-04-22 18:34 55.69896 -4.00541 22963 ft 386 kts 170°
2026-04-22 18:34 55.67269 -3.99459 23586 ft 389 kts 170°
2026-04-22 18:34 55.64613 -3.98374 24011 ft 395 kts 170°
2026-04-22 18:35 55.61924 -3.97283 24478 ft 397 kts 170°
2026-04-22 18:35 55.59220 -3.96189 24948 ft 400 kts 170°
2026-04-22 18:35 55.56497 -3.95089 25401 ft 402 kts 170°
2026-04-22 18:35 55.53787 -3.93997 25830 ft 405 kts 170°
2026-04-22 18:36 55.51029 -3.92886 26267 ft 408 kts 170°
2026-04-22 18:36 55.48248 -3.91766 26703 ft 411 kts 171°
2026-04-22 18:36 55.45450 -3.90643 27115 ft 413 kts 170°
2026-04-22 18:36 55.42644 -3.89517 27559 ft 415 kts 170°
2026-04-22 18:37 55.39806 -3.88380 27949 ft 418 kts 171°
2026-04-22 18:37 55.36967 -3.87244 28328 ft 421 kts 171°
2026-04-22 18:37 55.35058 -3.86483 28461 ft 426 kts 171°
2026-04-22 18:37 55.31162 -3.84927 28964 ft 430 kts 171°
2026-04-22 18:38 55.28281 -3.83778 29388 ft 431 kts 171°
2026-04-22 18:38 55.25351 -3.82613 29784 ft 433 kts 171°
2026-04-22 18:38 55.22410 -3.81329 30119 ft 438 kts 166°
2026-04-22 18:39 55.16777 -3.76895 30758 ft 448 kts 157°
2026-04-22 18:39 55.13991 -3.74429 31051 ft 450 kts 157°
2026-04-22 18:39 55.11192 -3.71953 31322 ft 452 kts 157°
2026-04-22 18:39 55.08371 -3.69476 31598 ft 454 kts 157°
2026-04-22 18:40 55.05536 -3.67014 31874 ft 456 kts 157°
2026-04-22 18:40 55.02686 -3.64558 32142 ft 457 kts 157°
2026-04-22 18:40 54.99828 -3.62111 32474 ft 457 kts 158°
2026-04-22 18:40 54.96979 -3.59680 32882 ft 456 kts 158°
2026-04-22 18:41 54.94140 -3.57263 33253 ft 455 kts 158°
2026-04-22 18:41 54.91289 -3.54842 33456 ft 457 kts 158°
2026-04-22 18:41 54.85557 -3.49988 33432 ft 461 kts 158°
2026-04-22 18:42 54.79833 -3.45146 33422 ft 454 kts 158°
2026-04-22 18:42 54.74166 -3.40371 33440 ft 454 kts 158°
2026-04-22 18:43 54.68455 -3.35576 33419 ft 456 kts 158°
2026-04-22 18:43 54.62733 -3.30786 33430 ft 457 kts 158°
2026-04-22 18:44 54.56994 -3.25996 33416 ft 458 kts 158°
2026-04-22 18:44 54.51251 -3.21217 33422 ft 458 kts 157°
2026-04-22 18:45 54.45498 -3.16444 33430 ft 458 kts 157°
2026-04-22 18:45 54.39772 -3.11710 33421 ft 459 kts 157°
2026-04-22 18:46 54.34010 -3.06960 33427 ft 460 kts 157°
2026-04-22 18:46 54.28236 -3.02214 33424 ft 460 kts 157°
2026-04-22 18:47 54.22459 -2.97479 33426 ft 461 kts 157°
2026-04-22 18:47 54.16668 -2.92751 33422 ft 461 kts 158°
2026-04-22 18:48 54.10795 -2.88405 33425 ft 460 kts 161°
2026-04-22 18:48 54.04929 -2.84254 33418 ft 460 kts 160°
2026-04-22 18:49 53.99022 -2.79985 33420 ft 461 kts 160°
2026-04-22 18:49 53.93141 -2.75760 33415 ft 460 kts 160°
2026-04-22 18:50 53.87223 -2.71506 33411 ft 460 kts 160°
2026-04-22 18:50 53.81340 -2.67243 33409 ft 460 kts 160°
2026-04-22 18:51 53.75446 -2.62997 33414 ft 459 kts 160°
2026-04-22 18:51 53.69605 -2.58824 33391 ft 459 kts 160°
2026-04-22 18:52 53.63713 -2.54624 33406 ft 459 kts 160°
2026-04-22 18:52 53.57796 -2.50410 33180 ft 467 kts 160°
2026-04-22 18:53 53.54802 -2.48277 32874 ft 468 kts 160°
2026-04-22 18:53 53.51802 -2.46139 32518 ft 465 kts 160°
2026-04-22 18:53 53.49832 -2.44739 32290 ft 463 kts 160°
2026-04-22 18:53 53.46866 -2.42635 31966 ft 464 kts 160°
2026-04-22 18:54 53.43892 -2.40533 31635 ft 464 kts 160°
2026-04-22 18:54 53.40911 -2.38432 31304 ft 465 kts 160°
2026-04-22 18:54 53.37928 -2.36333 30996 ft 465 kts 160°
2026-04-22 18:54 53.34946 -2.34237 30671 ft 466 kts 160°
2026-04-22 18:55 53.31954 -2.32135 30336 ft 466 kts 160°
2026-04-22 18:55 53.28966 -2.30039 29973 ft 466 kts 160°
2026-04-22 18:55 53.25975 -2.27944 29606 ft 466 kts 159°
2026-04-22 18:55 53.22975 -2.25857 29236 ft 466 kts 160°
2026-04-22 18:56 53.20005 -2.23814 28897 ft 466 kts 160°
2026-04-22 18:56 53.17014 -2.21763 28545 ft 466 kts 160°
2026-04-22 18:56 53.14080 -2.19424 28182 ft 468 kts 150°
2026-04-22 18:56 53.11410 -2.16262 27773 ft 472 kts 142°
2026-04-22 18:57 53.09074 -2.12492 27332 ft 464 kts 134°
2026-04-22 18:57 53.06882 -2.08607 26893 ft 456 kts 134°
2026-04-22 18:57 53.04730 -2.04805 26459 ft 449 kts 134°
2026-04-22 18:57 53.02594 -2.01057 26014 ft 443 kts 134°
2026-04-22 18:58 53.00476 -1.97368 25610 ft 437 kts 133°
2026-04-22 18:58 52.98390 -1.93754 25192 ft 431 kts 134°
2026-04-22 18:58 52.96319 -1.90181 24781 ft 424 kts 133°
2026-04-22 18:58 52.94298 -1.86705 24316 ft 412 kts 133°
2026-04-22 18:59 52.92354 -1.83369 23903 ft 405 kts 134°
2026-04-22 18:59 52.90407 -1.80030 23421 ft 401 kts 134°
2026-04-22 18:59 52.88474 -1.76720 22935 ft 398 kts 133°
2026-04-22 18:59 52.86553 -1.73434 22459 ft 395 kts 134°
2026-04-22 19:00 52.85268 -1.71239 22136 ft 392 kts 134°
2026-04-22 19:00 52.82763 -1.66965 21525 ft 388 kts 134°
2026-04-22 19:00 52.80884 -1.63765 21065 ft 385 kts 134°
2026-04-22 19:00 52.79029 -1.60609 20624 ft 382 kts 134°
2026-04-22 19:01 52.77181 -1.57469 20182 ft 379 kts 134°
2026-04-22 19:01 52.75354 -1.54369 19750 ft 375 kts 133°
2026-04-22 19:01 52.73537 -1.51290 19314 ft 373 kts 133°
2026-04-22 19:01 52.71741 -1.48248 18747 ft 369 kts 134°
2026-04-22 19:02 52.69953 -1.45225 18277 ft 361 kts 134°
2026-04-22 19:02 52.68225 -1.42306 17775 ft 350 kts 134°
2026-04-22 19:02 52.66573 -1.39521 17307 ft 339 kts 135°
2026-04-22 19:02 52.64924 -1.36742 16830 ft 330 kts 135°
2026-04-22 19:03 52.63355 -1.34103 16354 ft 322 kts 135°
2026-04-22 19:03 52.61783 -1.31528 15889 ft 315 kts 140°
2026-04-22 19:03 52.60081 -1.29338 15451 ft 308 kts 143°
2026-04-22 19:03 52.58398 -1.27199 15041 ft 301 kts 142°
2026-04-22 19:04 52.56764 -1.25104 14656 ft 295 kts 142°
2026-04-22 19:04 52.55167 -1.23046 14281 ft 289 kts 142°
2026-04-22 19:04 52.53596 -1.21018 13891 ft 286 kts 142°
2026-04-22 19:04 52.52035 -1.19006 13476 ft 283 kts 142°
2026-04-22 19:05 52.50486 -1.17019 13069 ft 283 kts 142°
2026-04-22 19:05 52.48918 -1.15025 12688 ft 287 kts 142°
2026-04-22 19:05 52.47332 -1.13018 12299 ft 288 kts 142°
2026-04-22 19:05 52.45740 -1.11013 11918 ft 288 kts 142°
2026-04-22 19:06 52.44151 -1.09019 11606 ft 287 kts 142°
2026-04-22 19:06 52.42593 -1.07070 11332 ft 284 kts 142°
2026-04-22 19:06 52.41014 -1.05103 11144 ft 279 kts 142°
2026-04-22 19:07 52.37976 -1.01335 10773 ft 273 kts 142°
2026-04-22 19:07 52.36460 -0.99459 10605 ft 274 kts 142°
2026-04-22 19:07 52.34943 -0.97584 10413 ft 274 kts 142°
2026-04-22 19:07 52.33424 -0.95709 10237 ft 274 kts 142°
2026-04-22 19:08 52.31903 -0.93834 10031 ft 274 kts 142°
2026-04-22 19:08 52.30381 -0.91963 9801 ft 273 kts 142°
2026-04-22 19:08 52.28862 -0.90100 9622 ft 273 kts 142°
2026-04-22 19:08 52.27346 -0.88244 9424 ft 272 kts 142°
2026-04-22 19:09 52.25828 -0.86393 9241 ft 272 kts 142°
2026-04-22 19:09 52.24317 -0.84551 9045 ft 271 kts 142°
2026-04-22 19:09 52.22809 -0.82719 8857 ft 269 kts 142°
2026-04-22 19:09 52.21310 -0.80900 8673 ft 268 kts 142°
2026-04-22 19:10 52.19820 -0.79095 8500 ft 266 kts 142°
2026-04-22 19:10 52.18340 -0.77302 8322 ft 264 kts 142°
2026-04-22 19:10 52.16866 -0.75519 8145 ft 263 kts 142°
2026-04-22 19:10 52.15401 -0.73750 7972 ft 262 kts 142°
2026-04-22 19:11 52.13944 -0.71991 7794 ft 261 kts 142°
2026-04-22 19:11 52.12491 -0.70237 7621 ft 259 kts 142°
2026-04-22 19:11 52.11040 -0.68489 7453 ft 259 kts 142°
2026-04-22 19:11 52.09632 -0.66685 7277 ft 255 kts 140°
2026-04-22 19:12 52.08273 -0.64878 7097 ft 250 kts 140°
2026-04-22 19:12 52.06961 -0.63124 6921 ft 245 kts 140°
2026-04-22 19:12 52.05659 -0.61382 6744 ft 241 kts 140°
2026-04-22 19:12 52.04405 -0.59609 6567 ft 236 kts 137°
2026-04-22 19:13 52.03197 -0.57828 6382 ft 232 kts 137°
2026-04-22 19:13 52.02021 -0.56063 6199 ft 228 kts 135°
2026-04-22 19:13 52.00890 -0.54284 6011 ft 224 kts 135°
2026-04-22 19:13 51.99783 -0.52530 5832 ft 221 kts 135°
2026-04-22 19:14 51.98691 -0.50799 5655 ft 219 kts 135°
2026-04-22 19:14 51.97604 -0.49083 5473 ft 217 kts 135°
2026-04-22 19:14 51.96529 -0.47392 5358 ft 213 kts 135°
2026-04-22 19:14 51.95468 -0.45731 5235 ft 212 kts 135°
2026-04-22 19:15 51.94762 -0.44626 5166 ft 213 kts 135°
2026-04-22 19:15 51.93317 -0.42372 5014 ft 218 kts 135°
2026-04-22 19:15 51.92226 -0.40676 4869 ft 216 kts 135°
2026-04-22 19:15 51.91142 -0.39001 4723 ft 214 kts 135°
2026-04-22 19:16 51.90063 -0.37342 4579 ft 213 kts 135°
2026-04-22 19:16 51.89004 -0.35727 4438 ft 211 kts 135°
2026-04-22 19:16 51.87941 -0.34114 4334 ft 206 kts 135°
2026-04-22 19:16 51.86895 -0.32537 4188 ft 205 kts 135°
2026-04-22 19:17 51.85872 -0.31003 4033 ft 196 kts 134°
2026-04-22 19:17 51.84890 -0.29543 3874 ft 188 kts 135°
2026-04-22 19:17 51.83930 -0.28130 3734 ft 185 kts 135°
2026-04-22 19:17 51.82972 -0.26728 3599 ft 186 kts 135°
2026-04-22 19:18 51.82040 -0.25263 3452 ft 187 kts 130°
2026-04-22 19:18 51.81175 -0.23701 3304 ft 186 kts 129°
2026-04-22 19:18 51.80320 -0.22149 3259 ft 184 kts 128°
2026-04-22 19:18 51.79467 -0.20618 3118 ft 183 kts 128°
2026-04-22 19:19 51.78614 -0.19102 2980 ft 182 kts 129°
2026-04-22 19:19 51.77765 -0.17592 2852 ft 181 kts 129°
2026-04-22 19:19 51.76925 -0.16107 2694 ft 181 kts 128°
2026-04-22 19:19 51.76128 -0.14546 2617 ft 179 kts 124°
2026-04-22 19:20 51.75384 -0.12931 2580 ft 178 kts 123°
2026-04-22 19:20 51.74653 -0.11330 2577 ft 178 kts 123°
2026-04-22 19:20 51.73919 -0.09720 2581 ft 178 kts 123°
2026-04-22 19:20 51.73184 -0.08110 2577 ft 178 kts 123°
2026-04-22 19:21 51.72448 -0.06498 2569 ft 178 kts 123°
2026-04-22 19:21 51.71716 -0.04887 2558 ft 178 kts 121°
2026-04-22 19:21 51.71323 -0.03069 2554 ft 172 kts 87°
2026-04-22 19:21 51.71792 -0.01366 2549 ft 170 kts 51°
2026-04-22 19:22 51.72694 -0.00142 2548 ft 170 kts 45°
2026-04-22 19:22 51.73617 0.01047 2496 ft 169 kts 47°
2026-04-22 19:22 51.74535 0.02242 2487 ft 169 kts 48°
2026-04-22 19:22 51.75403 0.03495 2501 ft 167 kts 50°
2026-04-22 19:23 51.76255 0.04759 2482 ft 162 kts 50°
2026-04-22 19:23 51.77056 0.05942 2484 ft 151 kts 50°
2026-04-22 19:23 51.77793 0.07117 2345 ft 148 kts 52°
2026-04-22 19:23 51.78507 0.08255 2346 ft 138 kts 52°
2026-04-22 19:24 51.79193 0.09340 2717 ft 139 kts 52°
2026-04-22 19:24 51.79887 0.10423 2821 ft 136 kts 51°
2026-04-22 19:24 51.80579 0.11413 2684 ft 130 kts 49°
2026-04-22 19:24 51.81233 0.12382 2420 ft 129 kts 51°
2026-04-22 19:25 51.81870 0.13376 2139 ft 125 kts 53°
2026-04-22 19:25 51.82471 0.14368 1894 ft 121 kts 51°
2026-04-22 19:25 51.83092 0.15324 1726 ft 125 kts 50°
2026-04-22 19:25 51.83731 0.16283 1513 ft 128 kts 48°
2026-04-22 19:26 51.84384 0.17255 1295 ft 126 kts 47°
2026-04-22 19:26 51.85028 0.18219 1066 ft 126 kts 47°
2026-04-22 19:26 51.85659 0.19187 916 ft 127 kts 46°
2026-04-22 19:26 51.86300 0.20172 757 ft 129 kts 44°
2026-04-22 19:27 51.86962 0.21160 565 ft 129 kts 44°
2026-04-22 19:27 51.87618 0.22135 420 ft 126 kts 44°
2026-04-22 19:27 51.88251 0.23104 346 ft 123 kts 43°
2026-04-22 19:27 51.88836 0.24002 695 ft 110 kts 44°
2026-04-22 19:28 51.89334 0.24800 1496 ft 99 kts 51°
2026-04-22 19:28 51.89877 0.25760 1633 ft 144 kts 54°